Location: Kitchener
(43.4500°N, 80.5000°W)
Time: 07:50:35
(UTC-04:00)

Daily predictions for brighter satellites

Satellite Brightness Start Highest point End
(mag) Time Altitude Azimuth Time Altitude Azimuth Time Altitude Azimuth
CZ-4C R/B 3.2 19:21:58 10° WSW 19:27:11 49° NW 19:33:07 10° NNE
COSMOS 2441 4.4 19:24:02 10° SSE 19:28:53 87° ENE 19:33:44 10° NNW
CENTAUR R/B 3.8 19:26:52 10° SE 19:30:28 16° ESE 19:34:15 10° ENE
Cosmos 2233 Rocket 4.3 19:24:40 10° SSW 19:30:59 76° W 19:37:20 10° N
SKYMED 2 3.5 19:27:31 10° NNE 19:31:54 78° ESE 19:36:13 10° S
ATLAS CENTAUR R/B 3.6 19:27:15 10° SSW 19:31:59 59° ESE 19:46:30 10° NE
Cosmos 1408 Rocket 3.9 19:28:29 10° N 19:32:38 41° ENE 19:36:43 10° SSE
SJ-6B 3.2 19:29:49 10° SE 19:33:39 47° ENE 19:37:36 10° N
ATLAS 5 CENTAUR R/B 1.9 19:32:28 10° SSW 19:37:08 57° ESE 19:42:12 10° NE
NOSS 3-2 (C) 3.5 19:34:38 10° SSW 19:40:40 72° ESE 19:47:17 10° NE
Cosmos 2237 Rocket 3.7 19:36:20 10° SW 19:41:39 40° WNW 19:46:59 10° NNE
Cosmos 192 4.3 19:37:17 10° SSW 19:42:13 73° ESE 19:47:11 10° NNE
Cosmos 1484 Rocket 3.2 19:40:38 10° S 19:44:27 67° W 19:48:22 10° NNW
SL-19 R/B 4.5 19:41:23 10° SSE 19:47:03 89° WSW 19:53:07 10° NNW
ALOS 3.4 19:43:40 10° ESE 19:47:24 24° ENE 19:51:08 10° NNE
Cosmos 1758 3.7 19:43:50 10° SSE 19:47:40 41° E 19:51:33 10° NNE
Helios 1A 3.6 19:47:33 10° SE 19:51:25 37° ENE 19:55:19 10° N
Spot 2 Rocket 3.7 19:46:55 10° SE 19:51:44 48° ENE 19:56:35 10° N
ISS -1.9 19:50:17 10° S 19:52:53 22° SE 19:54:42 14° E
Cosmos 1544 3.8 19:53:53 10° SSE 19:57:15 33° E 20:00:40 10° NNE
Cosmos 1269 Rocket 4.5 19:52:38 10° S 19:57:29 38° ESE 20:02:21 10° NE
METEOR-M 4.1 19:54:46 10° SSE 20:00:03 65° ENE 20:05:22 10° N
SL-8 R/B 4.1 19:56:03 10° SW 20:00:35 44° SE 20:04:21 14° ENE
Meteor 1-21 Rocket 4.2 19:55:19 10° N 20:00:49 59° ENE 20:06:16 10° SSE
Resurs 1-3 4.0 19:56:54 10° SE 20:01:02 42° ENE 20:05:11 10° N
Cosmos 1743 Rocket 3.9 19:58:23 10° N 20:02:37 42° ENE 20:06:48 10° SSE
SL-16 R/B 2.9 19:57:34 10° SW 20:03:10 58° WNW 20:08:48 10° NNE
SAR-Lupe-4 4.2 20:00:04 10° S 20:03:35 60° WSW 20:07:08 10° NNW
Cosmos 1766 4.2 20:01:34 10° SSW 20:05:26 53° W 20:09:22 10° N
Resurs 01 Rocket 1.6 20:02:15 10° SSE 20:06:38 62° ENE 20:11:03 10° N
HJ-1C 3.3 20:07:04 10° SSE 20:10:23 68° ENE 20:13:45 10° N
USA 215 3.5 20:07:32 10° ENE 20:13:50 48° SE 20:20:06 10° SSW
FENGYUN 3A 3.9 20:11:05 10° SE 20:16:11 47° ENE 20:21:20 10° N
CZ-2D R/B 4.0 20:15:36 21° ESE 20:17:29 32° ENE 20:20:59 10° N
Meteor 2-12 Rocket 4.4 20:15:22 10° S 20:21:30 80° E 20:27:41 10° N
Meteor 1-28 Rocket 3.9 20:18:14 10° N 20:21:54 57° WNW 20:25:32 10° SSW
Helios 1B rocket 2.3 20:19:11 10° NNE 20:23:19 73° ESE 20:27:24 10° S
Nadezhda 4 Rocket 3.9 20:17:07 10° N 20:23:24 72° E 20:29:35 10° SSE
FREGAT/IRIS 3.9 20:20:41 10° S 20:23:39 44° W 20:26:38 10° NNW
Abrixas 2.4 20:23:18 10° SW 20:26:15 63° SSE 20:26:59 44° E
GP-B 3.8 20:25:44 10° NNE 20:29:44 32° E 20:30:36 29° ESE
H-2A R/B 3.1 20:28:07 28° SE 20:29:44 43° ENE 20:33:25 10° N
Cosmos 1092 Rocket 3.9 20:26:13 10° N 20:32:23 62° E 20:38:27 10° SSE
Cosmos 1805 3.9 20:28:46 10° SSW 20:32:37 57° W 20:36:31 10° N
CZ-4B DEB 2.8 20:31:57 36° SE 20:33:01 58° ENE 20:36:15 10° N
Cosmos 1346 3.5 20:30:18 10° NNW 20:33:15 60° W 20:36:08 10° S
ERS-1 Rocket 4.1 20:35:35 23° ENE 20:35:52 24° ENE 20:39:48 10° NNE
GPS 2-04 Rocket1 4.1 20:33:55 10° SW 20:36:35 20° S 20:36:40 20° SSE
Gbstr 26 Del rocket 3.6 20:33:45 10° SSW 20:38:00 44° SE 20:39:48 32° E
TELKOM 3 3.3 20:35:31 10° WNW 20:38:02 62° WSW 20:38:02 62° WSW
Cosmos 1943 Rocket 3.1 20:33:35 10° N 20:38:24 28° NE 20:39:37 26° ENE
Cosmos 1953 3.4 20:36:19 10° SSW 20:40:10 45° WNW 20:44:00 10° N
Meteor 1-29 3.0 20:37:32 10° N 20:41:03 79° WNW 20:44:32 10° SSW
Cosmos 2369 Rocket 2.2 20:36:45 10° NNW 20:42:23 63° ENE 20:45:20 28° SE
H-2A R/B 4.4 20:46:02 11° NE 20:46:02 11° NE 20:46:22 10° NE
Cosmos 2026 Rocket 4.3 20:38:41 10° N 20:44:29 43° ENE 20:46:55 30° SE
Cosmos 1943 3.2 20:39:04 10° S 20:44:31 54° ESE 20:50:00 10° NNE
Cosmos 1110 Rocket 4.5 20:39:55 10° N 20:44:55 41° ENE 20:46:08 35° E
Cosmos-2242 4.1 20:44:15 10° SSW 20:48:27 46° WNW 20:52:42 10° N
Cosmos 2058 4.0 20:45:14 10° N 20:47:52 27° NE 20:47:52 27° NE
Cosmos 1634 Rocket 4.0 20:43:19 10° S 20:49:25 59° E 20:55:30 10° NNE
Cosmos 1603 4.2 20:45:07 10° SW 20:50:47 63° WNW 20:56:32 10° NNE
Cosmos 2263 4.4 20:46:07 10° NNW 20:51:50 55° ENE 20:53:42 38° ESE
Cosmos 2151 3.0 20:47:47 10° N 20:51:55 52° E 20:52:06 52° E
Cosmos 1733 3.0 20:51:15 10° S 20:55:07 82° E 20:59:01 10° N
Cosmos 1470 2.8 20:53:12 10° SSW 20:57:05 77° W 21:00:59 10° N
Cosmos 839 Rocket 4.2 20:52:55 10° NNW 21:00:44 80° NE 21:03:47 35° SE
ASTEX 1 3.5 20:58:47 10° N 21:03:42 75° W 21:08:34 10° SSW
Cosmos 1674 3.5 21:00:01 10° NNW 21:03:47 50° W 21:06:20 19° SSW
Cosmos 2195 Rocket 4.4 21:00:20 10° N 21:06:41 74° E 21:10:05 29° SSE
Cosmos 1500 Rocket 4.4 21:06:56 10° NNW 21:11:14 49° W 21:14:49 14° SSW
Cosmos 1842 Rocket 4.3 21:08:30 10° SSW 21:12:43 52° WNW 21:17:00 10° N
Meteor 2-1 Rocket 4.3 21:16:32 54° E 21:16:32 54° E 21:21:58 10° NNE
Cosmos 1331 Rocket 3.9 21:11:54 10° NNW 21:17:12 67° ENE 21:17:26 66° E
CENTAUR R/B 2.5 21:13:53 10° SW 21:19:58 88° NW 21:26:55 10° NE
ATLAS 5 CENTAUR R/B 3.9 21:18:04 10° W 21:22:13 26° NW 21:26:40 10° NNE
Meteor 1-16 Rocket 3.9 21:22:42 42° S 21:24:33 86° E 21:29:54 10° N
ALOS 3.6 21:20:32 11° SSW 21:24:38 38° W 21:29:00 10° NNW
ERBS 4.3 21:21:27 10° NW 21:23:13 25° NNW 21:23:13 25° NNW
ISS -1.0 21:26:00 10° WSW 21:27:24 23° W 21:27:24 23° W
Meteor 1-11 4.2 21:25:41 10° NNW 21:31:30 84° W 21:32:38 60° S
SL-24 R/B - RUBIN 2 4.3 21:26:15 10° NW 21:32:59 86° NE 21:33:48 70° SE
Envisat 3.4 21:42:35 54° N 21:42:35 54° N 21:46:31 10° N
SL-8 R/B 4.3 21:38:19 10° W 21:42:21 55° WNW 21:42:21 55° WNW
USA 215 3.7 21:53:07 25° NE 21:56:55 57° NNW 22:03:16 10° WSW
H-2A R/B 4.4 22:01:01 12° NNE 22:01:01 12° NNE 22:01:30 10° NNE
Cosmos 2279 Rocket 4.5 22:09:41 49° WSW 22:10:53 57° WNW 22:17:01 10° N
ERS-1 Rocket 4.3 22:15:37 37° WNW 22:15:37 37° WNW 22:19:12 10° NNW
Cosmos 1943 Rocket 3.3 22:17:00 10° NW 22:21:10 41° WNW 22:21:10 41° WNW
Cosmos 2369 Rocket 4.3 22:21:56 10° NW 22:25:52 20° W 22:27:10 18° WSW
CZ-3A R/B 4.3 21:58:41 10° SW 22:27:53 70° SSE 22:27:53 70° SSE
CENTAUR R/B 4.5 23:06:25 10° W 23:11:42 26° NNW 23:17:32 10° NNE
